Weather History for LKTB - July, 2013

Change the Weather History Date:

Tuesday, July 16, 2013

  Actual Average Record
Temperature  
Mean Temperature 66 °F -  
Max Temperature 81 °F 76 °F - ()
Min Temperature 52 °F 55 °F - ()
Cooling Degree Days 2    
Growing Degree Days 16 (Base 50)    
Moisture  
Dew Point 50 °F    
Average Humidity 54    
Maximum Humidity 82    
Minimum Humidity 24    
Precipitation  
Precipitation 0.00 in 0.08 in - ()
Sea Level Pressure  
Sea Level Pressure 30.20 in    
Wind  
Wind Speed 5 mph ()    
Max Wind Speed 9 mph    
Max Gust Speed -    
Visibility 14.6 miles    
Events      
T = Trace of Precipitation, MM = Missing Value Source: Averaged Metar Reports

Daily Weather History Graph

Daily Weather History Graph

Search for Another Location

Airport or City:

Trip Planner

Search our weather history database for the weather conditions in past years. The results will help you decide how hot, cold, wet, or windy it might be!

Date:

Astronomy

Jul. 16, 2013 Rise Set
Actual Time 5:05 AM CEST 8:52 PM CEST
Civil Twilight 4:24 AM CEST 9:32 PM CEST
Nautical Twilight 3:29 AM CEST 10:28 PM CEST
Astronomical Twilight 2:04 AM CEST 11:50 PM CEST
Moon 1:59 PM CEST (7/16) No Moon Set
Length of Visible Light 17h 07m
Length of Day
15h 46m
First Quarter, 53% of the Moon is Illuminated
Jul 16
First Quarter
Jul 22
Full
Jul 29
Last Quarter
Aug 6
New
Aug 14
First Quarter

Hourly Weather History & Observations

Time (CEST) Temp. Dew Point Humidity Pressure Visibility Wind Dir Wind Speed Gust Speed Precip Events Conditions
12:00 AM 59 °F 48 °F 58% 30.20 in 19 mi NW 4.6 mph - -   Scattered Clouds
12:00 AM 60.8 °F 48.2 °F 63% 30.18 in - NW 8.1 mph - N/A   Clear
12:30 AM 59.0 °F 48.2 °F 67% 30.18 in - NW 9.2 mph - N/A   Clear
1:00 AM 59 °F 48 °F 58% 30.21 in 16 mi NW 8.9 mph - -   Scattered Clouds
1:00 AM 59.0 °F 48.2 °F 67% 30.21 in - NW 9.2 mph - N/A   Clear
1:30 AM 57.2 °F 48.2 °F 72% 30.21 in - NW 8.1 mph - N/A   Clear
2:00 AM 57 °F 48 °F 64% 30.21 in 12 mi NW 6.7 mph - -   Scattered Clouds
2:00 AM 57.2 °F 48.2 °F 72% 30.21 in - NW 5.8 mph - N/A   Clear
2:30 AM 57.2 °F 48.2 °F 72% 30.21 in - NNE 3.5 mph - N/A   Clear
3:00 AM 54 °F 48 °F 72% 30.22 in 12 mi WNW 2.2 mph - -   Clear
3:00 AM 53.6 °F 48.2 °F 82% 30.21 in - WNW 3.5 mph - N/A   Clear
3:30 AM 55.4 °F 48.2 °F 77% 30.21 in - WNW 6.9 mph - N/A   Clear
4:00 AM 55 °F 48 °F 70% 30.22 in 11 mi ENE 4.5 mph - -   Clear
4:00 AM 55.4 °F 48.2 °F 77% 30.21 in - Variable 4.6 mph - N/A   Clear
4:30 AM 53.6 °F 48.2 °F 82% 30.21 in - Variable 1.2 mph - N/A   Clear
5:00 AM 53 °F 47 °F 75% 30.23 in 12 mi West 2.2 mph - -   Scattered Clouds
5:00 AM 53.6 °F 48.2 °F 82% 30.21 in - Variable 2.3 mph - N/A   Clear
5:30 AM 53.6 °F 48.2 °F 82% 30.21 in - WNW 3.5 mph - N/A   Clear
6:00 AM 54 °F 48 °F 74% 30.24 in 16 mi WNW 4.5 mph - -   Scattered Clouds
6:00 AM 53.6 °F 48.2 °F 82% 30.21 in - WNW 4.6 mph - N/A   Clear
6:30 AM 55.4 °F 50.0 °F 82% 30.24 in - WNW 5.8 mph - N/A   Clear
7:00 AM 57 °F 49 °F 67% 30.25 in 16 mi West 4.5 mph - -   Scattered Clouds
7:00 AM 57.2 °F 50.0 °F 77% 30.24 in - WNW 5.8 mph - N/A   Clear
7:30 AM 59.0 °F 50.0 °F 72% 30.24 in - West 3.5 mph - N/A   Clear
8:00 AM 62 °F 50 °F 56% 30.25 in 16 mi WNW 6.7 mph - -   Scattered Clouds
8:00 AM 60.8 °F 50.0 °F 68% 30.24 in - WNW 5.8 mph - N/A   Clear
8:30 AM 62.6 °F 51.8 °F 68% 30.24 in - WNW 6.9 mph - N/A   Clear
9:00 AM 66 °F 52 °F 52% 30.24 in 19 mi WNW 6.7 mph - -   Scattered Clouds
9:00 AM 66.2 °F 51.8 °F 60% 30.24 in 6.2 mi NW 6.9 mph - N/A   Partly Cloudy
9:30 AM 68.0 °F 50.0 °F 52% 30.24 in 6.2 mi Variable 3.5 mph - N/A   Partly Cloudy
10:00 AM 69 °F 50 °F 41% 30.24 in 19 mi SE 4.5 mph - -   Scattered Clouds
10:00 AM 68.0 °F 50.0 °F 52% 30.24 in 6.2 mi Variable 3.5 mph - N/A   Partly Cloudy
10:30 AM 69.8 °F 50.0 °F 49% 30.24 in 6.2 mi Variable 3.5 mph - N/A   Partly Cloudy
11:00 AM 71 °F 51 °F 38% 30.23 in 19 mi WNW 8.9 mph - -   Scattered Clouds
11:00 AM 69.8 °F 51.8 °F 53% 30.24 in 6.2 mi Variable 4.6 mph - N/A   Partly Cloudy
11:30 AM 73.4 °F 50.0 °F 44% 30.24 in 6.2 mi West 6.9 mph - N/A   Partly Cloudy
12:00 PM 73 °F 47 °F 28% 30.22 in 19 mi West 3.5 mph - -   Scattered Clouds
12:00 PM 73.4 °F 48.2 °F 41% 30.24 in - WNW 5.8 mph - N/A   Clear
12:30 PM 73.4 °F 48.2 °F 41% 30.24 in - WSW 5.8 mph - N/A   Clear
1:00 PM 76 °F 50 °F 29% 30.21 in 19 mi West 3.5 mph - -   Scattered Clouds
1:00 PM 75.2 °F 51.8 °F 44% 30.24 in - WNW 5.8 mph - N/A   Clear
1:30 PM 77.0 °F 50.0 °F 39% 30.21 in - NE 4.6 mph - N/A   Clear
2:00 PM 77 °F 47 °F 24% 30.19 in 19 mi West 6.7 mph - -   Scattered Clouds
2:00 PM 75.2 °F 50.0 °F 41% 30.21 in - WNW 6.9 mph - N/A   Clear
2:30 PM 75.2 °F 50.0 °F 41% 30.21 in - North 5.8 mph - N/A   Clear
3:00 PM 79 °F 50 °F 26% 30.17 in 19 mi NE 4.5 mph - -   Scattered Clouds
3:00 PM 77.0 °F 50.0 °F 39% 30.18 in - NNE 6.9 mph - N/A   Clear
3:30 PM 78.8 °F 50.0 °F 36% 30.18 in - West 4.6 mph - N/A   Clear
4:00 PM 79 °F 49 °F 25% 30.16 in 19 mi ENE 4.5 mph - -   Scattered Clouds
4:00 PM 78.8 °F 50.0 °F 36% 30.18 in - NNW 4.6 mph - N/A   Clear
4:30 PM 78.8 °F 48.2 °F 34% 30.18 in - NE 4.6 mph - N/A   Clear
5:00 PM 80 °F 50 °F 24% 30.15 in 19 mi ESE 2.2 mph - -   Scattered Clouds
5:00 PM 78.8 °F 51.8 °F 39% 30.18 in - Variable 2.3 mph - N/A   Clear
5:30 PM 78.8 °F 48.2 °F 34% 30.18 in - NNW 3.5 mph - N/A   Clear
6:00 PM 78.8 °F 48.2 °F 34% 30.18 in - North 5.8 mph - N/A   Clear
6:30 PM 80.6 °F 51.8 °F 37% 30.18 in - East 6.9 mph - N/A   Clear
7:00 PM 77 °F 51 °F 29% 30.14 in 19 mi East 6.7 mph - -   Scattered Clouds
7:00 PM 77.0 °F 51.8 °F 41% 30.15 in - East 4.6 mph - N/A   Clear
7:30 PM 75.2 °F 55.4 °F 50% 30.15 in - ENE 4.6 mph - N/A   Clear
8:00 PM 73 °F 54 °F 42% 30.15 in 28 mi East 4.5 mph - -   Scattered Clouds
8:00 PM 73.4 °F 55.4 °F 53% 30.18 in - East 5.8 mph - N/A   Clear
8:30 PM 73.4 °F 53.6 °F 50% 30.18 in - ENE 3.5 mph - N/A   Clear
9:00 PM 72 °F 52 °F 39% 30.16 in 28 mi ENE 4.5 mph - -   Scattered Clouds
9:00 PM 71.6 °F 53.6 °F 53% 30.18 in - ENE 3.5 mph - N/A   Clear
9:30 PM 69.8 °F 53.6 °F 56% 30.18 in - NE 4.6 mph - N/A   Clear
10:00 PM 68 °F 52 °F 47% 30.17 in 19 mi NNE 6.7 mph - -   Clear
10:00 PM 68.0 °F 53.6 °F 60% 30.18 in - NNE 5.8 mph - N/A   Clear
10:30 PM 64.4 °F 53.6 °F 68% 30.18 in - NNE 4.6 mph - N/A   Clear
11:00 PM 66 °F 52 °F 51% 30.18 in 19 mi North 4.5 mph - -   Clear
11:00 PM 66.2 °F 51.8 °F 60% 30.18 in - North 3.5 mph - N/A   Clear
11:30 PM 66.2 °F 51.8 °F 60% 30.18 in - North 3.5 mph - N/A   Clear